Location: Huppendorf
(49.9333°N, 11.1500°E)
Time: 21:47:48
(UTC+00:00)

Cosmos 2297 Rocket - Pass Details

Date: 27 February 2020
Orbit: 838 x 845 km, 71.0° (Epoch: 29 March)

Event Time Altitude Azimuth Distance (km) Brightness Sun altitude
Rises 17:53:57 0° 333° (NNW) 3,416 5.7 -10.5°
Reaches altitude 10° 17:56:44 10° 345° (NNW) 2,478 4.8 -11.0°
Maximum altitude 18:01:41 30° 45° (NE) 1,492 3.1 -11.8°
Enters shadow 18:05:08 17° 95° (E) 2,030 3.5 -12.3°
